Henrik Krøyer Holme

KL  EN  DA
ASIAQ
Weather Now GREENLAND SURVEY
Updated [WGT/WGST] Temperature [°C] Wind [m/s] Air pressure [hPa] Relative humidity [%] Precipitation [mm]
Present Wind chill Speed Max
03.09 10:00n/an/an/an/an/an/an/a
03.09 09:00-3,60,01,0 ⇐1,0101277n/a
03.09 08:00-4,40,01,0 ⇙1,0101281n/a
03.09 07:00-4,8-7,32,0 ⇘2,0101284n/a
03.09 06:00-4,8-7,32,0 ⇓2,0101286n/a
03.09 05:00-5,0-8,42,0 ⇓3,0101284n/a
03.09 04:00-5,2-8,62,0 ⇓3,0101284n/a
03.09 03:00-5,9-10,13,0 ⇓3,0101286n/a
03.09 02:00-5,9-10,73,0 ⇓4,0101287n/a
03.09 01:00-5,7-10,94,0 ⇓4,0101288n/a
03.09 00:00-5,0-10,14,0 ⇓4,0101389n/a
02.09 23:00-4,3-9,74,0 ⇓5,0101384n/a
02.09 22:00-4,3-9,74,0 ⇓5,0101284n/a
02.09 21:00-3,6-9,86,0 ⇙8,0101285n/a
02.09 20:00-3,5-9,05,0 ⇙7,0101288n/a
02.09 19:00-3,7-8,54,0 ⇓5,0101284n/a
02.09 18:00-3,8-9,85,0 ⇙7,0101285n/a
02.09 17:00-3,5-9,76,0 ⇙8,0101286n/a
02.09 16:00-3,5-10,06,0 ⇙9,0101287n/a
02.09 15:00-4,2-10,66,0 ⇙8,0101287n/a
02.09 14:00-4,1-10,56,0 ⇙8,0101384n/a
02.09 13:00-3,8-9,85,0 ⇙8,0101382n/a
02.09 12:00-4,2-10,66,0 ⇙7,0101382n/a
02.09 11:00-4,3-10,45,0 ⇙7,0101385n/a
02.09 10:00-4,6-11,16,0 ⇙7,0101385n/a
Position: (80.649444,-13.711944)

[Back]